www.pogodaiklimat.ru

Погода и климат >> Архив погоды >> Туркменистан >> Кенеургенч


ПОГОДА в Кенеургенче

  • Прогноз погоды в Кенеургенче
  • Монитор погоды в Кенеургенче

АРХИВ ПОГОДЫ в Кенеургенче

Время (UTC), дата Ветер
(напр.,м/с)
 
Видим.   Явления Облачность Т
(С)
Тd
(С)
f
(%)
Тe
(С)
Тes
(С)
Комфортность P
(гПа)
Po
(гПа)
Тmin
(С)
Tmax
(С)
R
(мм)
R24
(мм)
S
(см)
12 11.09 В 4 10 км 1/0
[Ac lent]
+26.5 +5.0 25 +26 +28 жарко 1023.5 1015.2
15 11.09 В 3 10 км 3/0
[Ac lent]
+21.7 +7.1 39 +23 +23 комфорт 1023.4 1015.0 +26.5
18 11.09 СВ 2 10 км 3/0
[Ac lent]
+17.7 +6.4 47 +18 +18 1024.6 1016.0 +26.5
21 11.09 СВ 2 10 км ясно +15.0 +7.3 60 +15 +15 1024.7 1016.0
00 12.09 СВ 1 10 км ясно +13.7 +7.8 68 +14 +14 1024.2 1015.5
03 12.09 СВ 2 10 км 3/0
[Ac lent]
+12.8 +7.7 71 +12 +13 1024.2 1015.5 +12.0
06 12.09 В 3 10 км 3/3 1000 м
[Cu hum]
+22.5 +7.8 39 +24 +29 комфорт 1024.3 1015.9 +12.0
09 12.09 СВ 3 10 км 4/4 1000 м
[Cu hum]
+26.3 +6.4 28 +26 +32 жарко 1022.6 1014.2
12 12.09 СВ 3 10 км 8/8 1000 м
[Sc]
+26.6 +5.8 26 +26 +26 жарко 1020.9 1012.7
15 12.09 С 2 10 км 9/9 1000 м
[Sc]
+22.6 +7.1 37 +23 +23 комфорт 1020.3 1011.9 +26.8
18 12.09 СВ 2 10 км 9/9 1000 м
[Sc]
+21.0 +8.9 46 +23 +23 комфорт 1020.8 1012.3 +26.8
21 12.09 В 2 10 км 8/8 1000 м
[Sc]
+17.6 +8.5 55 +18 +18 1019.9 1011.4
00 13.09 В 2 10 км 9/9 1000 м
[Sc]
+15.2 +8.8 66 +15 +15 1019.5 1010.9
03 13.09 В 2 10 км 10/10 1000 м
[Sc]
+17.2 +9.8 62 +18 +18 1019.9 1011.4 +14.8
06 13.09 В 3 10 км 10/10 1000 м
[Sc]
+23.0 +8.1 38 +24 +24 комфорт 1020.3 1011.9 +14.8
09 13.09 СВ 3 10 км 5/5 1000 м
[Sc]
+27.2 +5.0 24 +26 +31 жарко 1019.5 1011.3
12 13.09 С 3 10 км 10/10 1000 м
[Sc]
+25.2 +4.8 27 +25 +25 комфорт 1018.6 1010.2
15 13.09 С 2 10 км 9/9 1000 м
[Sc]
+22.6 +7.4 38 +24 +24 комфорт 1018.3 1009.9 +27.2
18 13.09 С 1 10 км 9/9 1000 м
[Sc]
+19.8 +9.0 50 +22 +22 комфорт 1018.4 1009.9 +27.2
21 13.09 С 2 10 км 10/10 1000 м
[Sc]
+18.6 +9.3 55 +20 +20 1017.8 1009.3
00 14.09 С 2 10 км 4/4 1000 м
[Sc]
+15.0 +7.1 59 +15 +15 1017.6 1009.0
03 14.09 С 2 10 км 4/0
[Ac As]
+15.5 +7.7 60 +15 +16 1018.3 1009.7 +14.5
06 14.09 С 4 10 км 4/0
[Ac As]
+21.2 +7.3 41 +22 +27 комфорт 1019.2 1010.7 +14.5
09 14.09 С 3 10 км 3/0
[Ac lent]
+26.0 +6.5 29 +26 +33 жарко 1018.6 1010.2
12 14.09 С 2 10 км 3/0
[Ac lent]
+26.6 +5.1 25 +26 +28 жарко 1017.8 1009.6
15 14.09 С 1 10 км 3/0
[Ac lent]
+22.1 +8.0 40 +23 +23 комфорт 1018.4 1010.0 +26.8
18 14.09 С 1 10 км 3/0
[Ac lent]
+19.0 +7.4 47 +21 +21 комфорт 1019.0 1010.5 +26.8
21 14.09 С 1 10 км ясно +16.4 +5.9 50 +17 +17 1019.1 1010.5
00 15.09 С 2 10 км ясно +14.2 +5.3 55 +14 +14 1019.3 1010.7
03 15.09 СЗ 2 10 км ясно +13.8 +6.5 61 +13 +14 1020.5 1011.9 +12.8
06 15.09 С 2 10 км ясно +21.8 +7.6 40 +23 +32 комфорт 1021.4 1013.0 +12.8
09 15.09 С 3 10 км ясно +25.1 +6.1 30 +25 +35 комфорт 1020.6 1012.2
12 15.09 СЗ 3 10 км ясно +26.1 +5.1 26 +25 +28 комфорт 1020.0 1011.6
15 15.09 В 1 10 км ясно +21.0 +6.7 39 +23 +23 комфорт 1020.0 1011.5 +26.4
18 15.09 Ю 1 10 км ясно +16.7 +6.2 50 +18 +18 1020.3 1011.8 +26.4
21 15.09 ЮЗ 1 10 км ясно +14.0 +4.8 54 +15 +15 1020.0 1011.4
00 16.09 ЮЗ 1 10 км ясно +12.9 +6.4 65 +13 +13 1020.1 1011.5
03 16.09 З 1 10 км 3/0
[Ac cast]
+13.7 +7.6 67 +14 +15 1021.3 1012.7 +12.5
06 16.09 З 3 10 км ясно +23.0 +8.5 39 +24 +32 комфорт 1021.6 1013.2 +12.5
09 16.09 ЮЗ 3 10 км ясно +28.2 +5.9 24 +27 +37 жарко 1020.1 1011.9
12 16.09 З 2 10 км ясно +29.3 +4.8 21 +28 +31 жарко 1018.4 1010.2
18 16.09 ЮВ 3 10 км ясно +20.1 +6.7 42 +21 +21 комфорт 1017.9 1009.4 +29.5
00 17.09 Ю 3 10 км ясно +15.5 +7.7 60 +15 +15 1017.3 1008.7
03 17.09 ЮВ 3 10 км ясно +15.3 +8.0 62 +15 +15 1017.9 1009.3 +15.0
06 17.09 Ю 4 10 км ясно +25.0 +9.3 37 +26 +32 жарко 1018.1 1009.7 +15.0
09 17.09 Ю 5 10 км 6/6 1000 м
[Sc]
+29.8 +7.0 24 +29 +31 жарко 1015.9 1007.7
12 17.09 Ю 4 10 км 4/0
[Ac cast]
+29.5 +4.5 20 +28 +29 жарко 1013.8 1005.6
15 17.09 ЮВ 2 10 км 3/0
[Ac lent]
+24.1 +6.8 33 +24 +24 комфорт 1012.0 1003.7 +30.3
03 18.09 ЮВ 2 10 км ясно +16.8 +8.9 60 +17 +18 1009.7 1001.3 +16.1

 

Местоположение метеостанции Кенеургенч (Дашогузский велаят, Туркменистан): широта 42.30 долгота 59.13 высота над уровнем моря 71 м.

В архиве по умолчанию представлена погода в Кенеургенче за последнюю неделю. Архивные данные за месяц целиком и за предыдущие месяцы, начиная с января 2011 года, Вы можете получить, выбрав интересующий диапазон дат из раскрывающегося списка и нажав кнопку "Ввод!".


*Определитесь, кто Вы:
робот инопланетянин человек

Внимание! Время в таблицах - всемирное. Для получения местного времени необходимо прибавить поправку, которая равна 5 ч.

Смотрите также архив погоды в соседних городах и на ближайших метеорологических станциях:

Погода в Тахиаташе (Каракалпакстан, Узбекистан) (40 км)
Погода в Нукусе (Каракалпакстан, Узбекистан) (44 км)
Погода в Тахтакупыре (Каракалпакстан, Узбекистан) (45 км)
Погода в Дашогузе (Дашогузский велаят, Туркменистан) (84 км)
Погода в Шах-Сенеме (Дашогузский велаят, Туркменистан) (87 км)
Погода в Кунграде (Каракалпакстан, Узбекистан) (88 км)
Погода в Чимбае (Каракалпакстан, Узбекистан) (92 км)
Погода в Гурлене (Хорезмская область, Узбекистан) (115 км)
Погода в Хиве (Хорезмская область, Узбекистан) (144 км)
Погода в Ургенче (Хорезмская область, Узбекистан) (144 км)

Пояснения к столбцам:

Ветер - указаны скорость ветра в м/с - средняя за 10 мин, порывы в срок и между сроками (в фигурных скобках) и направление, откуда дует ветер: С - северный, СВ - северо-восточный, В - восточный, ЮВ - юго-восточный, Ю - южный, ЮЗ - юго-западный, З - западный, СЗ - северо-западный.
Видимость - горизонтальная дальность видимости в метрах или километрах. При видимости от 1 до 10 км при отсутствии осадков обычно наблюдается дымка, при ухудшении видимости до 1 км и менее - туман. В сухую погоду видимость может ухудшаться дымом, пылью или мглою.
Явления - указаны атмосферные явления, наблюдавшиеся в срок или в последний час перед сроком; фигурными скобками обозначены явления, наблюдавшиеся между сроками (за 1-3 часа до срока); квадратными скобками обозначены град или гололедные отложения с указанием их диаметра в мм.
Облачность - указаны через наклонную черту общая и нижняя облачность в баллах и высота нижней границы облаков в метрах; квадратными скобками обозначены формы облаков: Ci - перистые, Cs - перисто-слоистые, Cc - перисто-кучевые, Ac - высококучевые, As - высокослоистые, Sc - слоисто-кучевые, Ns - слоисто-дождевые, Cu - кучевые, Cb - кучево-дождевые. Подробнее классификацию облаков см. в Атласе облаков (PDF).
T - Температура воздуха - температура, измеренная на высоте 2 м над землей.
Td - Температура точки росы - температура, при понижении до которой содержащийся в воздухе водяной пар достигнет насыщения.
f - Относительная влажность воздуха - влажноcть воздуха, измеренная на высоте 2 м над землей.
Te - Эффективная температура - температура, которую ощущает одетый по сезону человек в тени. Характеристика душности погоды. При расчете учитывается влияние влажности воздуха и скорости ветра на теплоощущения человека.
Tes - Эффективная температура на солнце - температура, которую ощущает человек, с поправкой на солнечный нагрев. Характеристика знойности погоды. Зависит от высоты солнца над горизонтом, облачности и скорости ветра. Ночью, в пасмурную погоду, а также при ветре 12 м/с и более поправка равна нулю.
P - Атмосферное давление - приведенное к уровню моря атмосферное давление.
Po - Атмосферное давление - измеренное на уровне метеостанции атмосферное давление.
Tmin - Минимальная температура - минимум температуры воздуха на высоте 2 м над землей.
Tmax - Максимальная температура - максимум температуры воздуха на высоте 2 м над землей.
R - Количество осадков - Количество выпавших осадков за период времени, мм. При наведении курсора мыши на число - период времени, за который выпало указанное количество осадков.
R24 - Количество осадков - Количество выпавших осадков за 24 часа, мм.
S - Снежный покров - Высота снежного покрова, см. При наведении курсора мыши на число - состояние снежного покрова и степень покрытия местности в баллах.